sat.trackr.live / text

‹ back to catalog

SHIYAN-27 OBJECT E

NORAD 63603 · 2025-078E

PAYLOAD ACTIVE UNKNOWN

§ Identity

Operator
Country
PRC
Launch date
2025-04-18
Launch site
TAISC
Launch vehicle
Mass (kg)
RCS (m²)

External: N2YO · Heavens-Above · Gunter

§ Orbital elements

Epoch: 2026-05-25T04:43:42.115872Z

Period
106.10 min
Inclination
99.6895°
Eccentricity
0.0001200
Mean motion
13.57239004 rev/d
Perigee alt
1,044.9 km
Apogee alt
1,046.6 km
Semi-major
7,423.9 km
B*
7.6438e-5
RAAN
152.6947°
Arg perigee
88.4737°
Mean anomaly
271.6539°
Rev number
5,441

§ Raw data

SHIYAN-27 OBJECT E1 63603U 25078E   26145.19701523  .00000010  00000+0  76438-4 0  99982 63603  99.6895 152.6947 0001200  88.4737 271.6539 13.57239004 54411

JSON: /api/v1/satellites/63603 · /tle

For live sub-satellite position, see the globe view (requires WebGL).

§ Visibility from observer

Set your observer location to see the next 7 days of passes ≥ 10°. The values pass through the URL so the page stays shareable.

No JS? Fill the form by hand. The geolocation button needs JavaScript.